Cortez, CO

12:40 PM MST on November 21, 2019 (GMT -0700)
Cortez Municipal

Weather History for KCEZ - September, 2019

Change the Weather History Date:

Monday, September 30, 2019

  Actual Average Record
Temperature  
Mean Temperature 63 °F 55 °F  
Max Temperature 79 °F 72 °F 88 °F (2010)
Min Temperature 47 °F 37 °F 28 °F (2007)
Degree Days  
Heating Degree Days 2 10  
Month to date heating degree days 105 161  
Since 1 July heating degree days 105 172  
Cooling Degree Days 0 0  
Month to date cooling degree days 67 17  
Year to date cooling degree days 547 426  
Growing Degree Days 14 (Base 50)    
Moisture  
Dew Point 31 °F    
Average Humidity 35    
Maximum Humidity 56    
Minimum Humidity 13    
Precipitation  
Precipitation 0.00 in 0.05 in 0.17 in (2004)
Month to date precipitation 0.25 1.78  
Year to date precipitation 10.03 10.22  
Sea Level Pressure  
Sea Level Pressure 29.73 in    
Wind  
Wind Speed 11 mph (SSE)    
Max Wind Speed 23 mph    
Max Gust Speed 32 mph    
Visibility 10 miles    
Events      
T = Trace of Precipitation, MM = Missing Value Source: NWS Daily Summary

Daily Weather History Graph

Daily Weather History Graph

Search for Another Location

Airport or City:

Astronomy

Sep. 30, 2019 Rise Set
Actual Time 7:08 AM MDT 6:59 PM MDT
Civil Twilight 6:42 AM MDT 7:25 PM MDT
Nautical Twilight 6:12 AM MDT 7:55 PM MDT
Astronomical Twilight 5:42 AM MDT 8:26 PM MDT
Moon 9:14 AM MDT (9/30) 8:39 PM MDT (9/30)
Length of Visible Light 12h 42m
Length of Day
11h 50m
Waxing Crescent, 6% of the Moon is Illuminated
Sep 30
Waxing Crescent
Oct 5
First Quarter
Oct 13
Full
Oct 21
Last Quarter
Oct 27
New

Hourly Weather History & Observations

Time (MDT) Temp. Windchill Dew Point Humidity Pressure Visibility Wind Dir Wind Speed Gust Speed Precip Events Conditions
12:53 AM 53.1 °F - 34.0 °F 48% 29.72 in 10.0 mi Calm Calm - N/A   Clear
1:53 AM 53.1 °F - 35.1 °F 50% 29.71 in 10.0 mi ENE 10.4 mph - N/A   Clear
2:53 AM 62.1 °F - 37.0 °F 39% 29.70 in 10.0 mi SSE 11.5 mph - N/A   Clear
3:53 AM 55.0 °F - 36.0 °F 49% 29.73 in 10.0 mi NW 4.6 mph - N/A   Mostly Cloudy
4:53 AM 51.1 °F - 36.0 °F 56% 29.75 in 10.0 mi ENE 5.8 mph - N/A   Partly Cloudy
5:53 AM 50.0 °F - 35.1 °F 57% 29.78 in 10.0 mi Calm Calm - N/A   Clear
6:53 AM 54.0 °F - 36.0 °F 51% 29.79 in 10.0 mi East 9.2 mph - N/A   Clear
7:53 AM 57.0 °F - 36.0 °F 45% 29.81 in 10.0 mi SSE 5.8 mph - N/A   Clear
8:53 AM 64.0 °F - 34.0 °F 33% 29.80 in 10.0 mi South 12.7 mph - N/A   Clear
9:53 AM 66.0 °F - 33.1 °F 29% 29.79 in 10.0 mi SSW 16.1 mph 23.0 mph N/A   Clear
10:53 AM 69.1 °F - 30.9 °F 24% 29.79 in 10.0 mi SSW 16.1 mph 27.6 mph N/A   Clear
11:53 AM 72.0 °F - 28.9 °F 20% 29.78 in 10.0 mi SW 18.4 mph 27.6 mph N/A   Clear
12:53 PM 73.9 °F - 28.9 °F 19% 29.78 in 10.0 mi SSW 18.4 mph 26.5 mph N/A   Clear
1:53 PM 75.0 °F - 30.0 °F 19% 29.75 in 10.0 mi South 10.4 mph 26.5 mph N/A   Clear
2:53 PM 77.0 °F - 28.9 °F 17% 29.68 in 10.0 mi SSW 13.8 mph 29.9 mph N/A   Clear
3:53 PM 78.1 °F - 30.9 °F 18% 29.68 in 10.0 mi South 16.1 mph 27.6 mph N/A   Clear
4:53 PM 79.0 °F - 24.1 °F 13% 29.67 in 10.0 mi SSW 18.4 mph 27.6 mph N/A   Clear
5:53 PM 75.9 °F - 26.1 °F 16% 29.67 in 10.0 mi SSW 15.0 mph - N/A   Clear
6:53 PM 64.9 °F - 30.9 °F 28% 29.69 in 10.0 mi South 9.2 mph - N/A   Clear
7:53 PM 60.1 °F - 28.0 °F 30% 29.70 in 10.0 mi NE 3.5 mph - N/A   Clear
8:53 PM 55.0 °F - 28.0 °F 35% 29.70 in 10.0 mi Variable 5.8 mph - N/A   Clear
9:53 PM 54.0 °F - 27.0 °F 35% 29.71 in 10.0 mi NE 6.9 mph - N/A   Clear
10:53 PM 53.1 °F - 25.0 °F 34% 29.71 in 10.0 mi ENE 3.5 mph - N/A   Clear
11:53 PM 46.0 °F 43.1 °F 27.0 °F 47% 29.73 in 10.0 mi East 5.8 mph - N/A   Clear